OBJECT H, 44886

Orbit data source: Space-Track

You're viewing an Uncataloged Satellite

Recently launched and/or uncataloged satellites may have evolving metadata. Metadata may include but not limited to: Owner, Maufacturer, Bus, Motor, and Mission.

OBJECT H, 44886 is a satellite in SSO that was launched on Fri, 20 Dec 2019 UTC via a CHANG ZHENG 4B launch vehicle from the Taiyaun Space Center, China (TSC). Unknown objects in Earth's orbit typically refer to objects detected orbiting the Earth but have not yet been identified or cataloged. These objects could be anything from previously untracked satellites, spent rocket stages, debris from satellite collisions, or even natural meteoroids temporarily captured by Earth's gravity.

Loading next visibility...
Identifier
44886, 2019-093H
Orbit
SSO
Last TLE update
9 hours ago
Origin
Flag of TBDTLCJ/ZXKJ (TBD)
Manufacturer
Weina
Mission
Operational Commercial Imaging
Bus & Motor
MN50, Unknown motor
Mass
72 kg wet, 72 kg dry
Launch date (UTC)
2019-12-20 (6 years ago)
Launch vehicle
CHANG ZHENG 4B
Launch site
Taiyaun Space Center, China (TSC)
Object type
Unknown
Shape & HBR
Box + 2 Pan, Unknown HBR
Radar Cross Section
0.195 m², Medium (>0.1 m² and < 1m²)

Expand to show TLE details & history

TLE from 9 hours ago
0 OBJECT H
1 44886U 19093H   25183.91349055  .00002677  00000-0  26532-3 0  9990
2 44886  97.8205 269.1522 0013451 141.5734 218.6446 14.92596607300035
Epoch: 2025-07-02T21:55Z
TLE epoch observation values (Epoch: 2025-07-02T21:55:25.583Z)
Latitude
0.00001°
Longitude
19.10783°
Altitude
600.211 km
Speed
7.556 km/s
True Right ascension
17h 56m 36s
True Declination
0° 00' 00"
Sunlit
Object was in full shadow at epoch
Visualization orbit readout
Latitude
55.22718°
Longitude
-149.19001°
Altitude
590.017 km
Speed
7.575 km/s
Apparent Right ascension
06h 28m 51s
Apparent Declination
10° 24' 53"
Sunlit
Object is in daylight
Visualization observer readout
Local Sidereal Time
18:17:01
Azimuth
356.223° N
Elevation
-39.594°
Doppler factor
1
Orbital elements
Apogee altitude
596.232 km
Perigee altitude
577.495 km
Semi-major axis
6,965 km
Eccentricity
0.00135
Inclination
97.8205°
RAAN
269.1522°
Arg. of periapsis
141.5734°
True anomaly
Unknown
Mean anomaly
218.6446°
Eccentric anomaly
Unknown
Mean motion
3.73389 °/min
Orbital period
96.41 mins
BSTAR
0.00026532
Loading maneuver chart data...
Loading SW <> Apogee altitude chart data...
Loading historical data...
Loading historical data...
Loading historical data...
Loading historical data...
Loading historical data...
Loading historical data...
Loading historical data...

OBJECT H Visibility forecast

Observer location: undefined°, undefined°

Span
Click to sort rows by Start time (UTC) header in descending order
Start Az.
Max El. time (UTC)
Max El. Az.
Max El.
End time (UTC)
End Az.
6 mins2025-07-03 17:48:20.105Z40.53° NE2025-07-03 17:51:20.105Z88.496° E22.411°2025-07-03 17:54:20.105Z145.029° SSE
5 mins2025-07-03 19:25:20.105Z326.805° NNW2025-07-03 19:27:20.105Z284.049° WNW22.36°2025-07-03 19:30:20.105Z236.652° WSW
6 mins2025-07-04 06:14:20.105Z204.956° SW2025-07-04 06:16:20.105Z250.157° W31.367°2025-07-04 06:20:20.105Z329.953° NNW
|